Tracking 18710 objects as of 29-June-2017
HD Live streaming from Space Station
objects crossing your sky now

COSMOS 2453

Track COSMOS 2453 now!
10-day predictions
COSMOS 2453 is classified as:


NORAD ID: 35500
Int'l Code: 2009-036C
Perigee: 1,501.5 km
Apogee: 1,513.7 km
Inclination: 82.5 °
Period: 116.0 minutes
Semi major axis: 7878 km
RCS: 0.8796 m2 (medium)
Launch date: July 6, 2009
Source: Commonwealth of Independent States (former USSR) (CIS)
Launch site: PLESETSK MISSILE AND SPACE COMPLEX (PKMTR)

COSMOS 2453 is a Russian military satellite. Some experts believe the COSMOS 2453 could be part of Russia's Oko (Eye) orbital missile early warning network.
Your satellite tracking list
Your tracking list is empty





NASA's NSSDC Master Catalog

Two Line Element Set (TLE):
1 35500U 09036C   17179.47083260 +.00000033 +00000-0 +16948-3 0  9993
2 35500 082.4874 322.7354 0007773 094.2833 265.9131 12.41451953361638
Source of the keplerian elements: AFSPC